Location: Newark
(3.8000°S, 102.2500°E)
Time: 06:46:47
(UTC+00:00)

Hubble Space Telescope - Visible Passes

Search period start: 01 October 2020 00:00
Search period end: 11 October 2020 00:00
Orbit: 536 x 540 km, 28.5° (Epoch: 30 September)

Date Brightness Start Highest point End Pass type
(mag) Time Alt. Az. Time Alt. Az. Time Alt. Az.
01 Oct 3.2 12:35:14 10° S 12:36:07 12° S 12:36:07 12° S visible
02 Oct 2.7 12:23:52 10° SSW 12:26:14 18° SSE 12:26:14 18° SSE visible
03 Oct 2.2 12:12:41 10° SSW 12:16:05 24° SSE 12:16:23 24° SE visible
04 Oct 1.8 12:01:39 10° SW 12:05:23 32° SSE 12:06:36 27° ESE visible
05 Oct 1.3 11:50:42 10° SW 11:54:41 45° SSE 11:56:51 23° E visible
06 Oct 0.8 11:39:50 10° SW 11:43:57 65° SSE 11:47:08 16° ENE visible
06 Oct 3.9 13:22:04 10° WNW 13:22:29 12° WNW 13:22:29 12° WNW visible
07 Oct 0.8 11:29:05 10° WSW 11:33:14 87° NNW 11:37:22 10° ENE visible
07 Oct 3.7 13:12:08 10° WNW 13:12:47 12° NW 13:12:47 12° NW visible
08 Oct 1.2 11:18:24 10° WSW 11:22:30 60° NNW 11:26:34 10° NE visible
09 Oct 3.3 21:24:45 11° N 21:26:17 13° NNE 21:28:22 10° ENE visible
10 Oct 2.9 21:15:02 18° NNE 21:15:36 18° NNE 21:18:30 10° ENE visible
